Simultaneous Nadir Overpasses (SNOs) Predictions

Prediction of SNOs between GOES-16 and TERRA Satellite Orbit:

Table of predicted SNOs for the next 14.0 days since TLE Epoch: 1/27/2024
Index Date Time (GOES-16) GOES-16 Lat,Lon TERRA Lat,Lon Distance(km) Time Diff (sec)
1 01/27/2024 15:00:08 0.02, -75.22 0.17, -75.90 76.97 80
2 01/29/2024 14:40:32 0.02, -75.24 -0.67, -71.81 388.99 80
3 01/30/2024 03:03:24 -0.03, -75.22 -0.34, -76.72 170.95 80
4 02/01/2024 02:43:48 -0.02, -75.24 0.54, -72.64 295.73 80
5 02/01/2024 15:03:48 0.02, -75.27 0.51, -77.50 254.19 80
6 02/03/2024 14:49:33 0.02, -75.29 -0.39, -73.42 213.02 80
7 02/04/2024 03:09:43 -0.02, -75.27 -0.65, -78.33 346.44 80
8 02/06/2024 02:50:06 -0.02, -75.30 0.23, -74.24 121.02 80
9 02/06/2024 15:10:07 0.02, -75.33 0.81, -79.10 428.96 80
10 02/08/2024 14:55:50 0.00, -75.35 -0.09, -75.02 38.83 80
